World > North America > United States > Ohio

Mantua, Ohio Regional Weather

Lat: 41.28N, Lon: 81.22W
Wx Zone: OHZ022Web Search
Mantua Weather Warning NWS WEATHER ALERT FOR THE MANTUA, OH AREA - Issued: 306 PM EDT Wed May 5 2021 Mantua Weather Warning  

Our weather pages are very print friendly and they make great conversation starters.

Feedback


°F Click to change Mantua hourly weather to Imperial units.Click to change Mantua hourly weather to Metric units. °C
Mantua Weather Map
UTC Time: 5/6/2021, 00:18
Your Time:

Mantua, OH Regional Weather

Expires:202105060100;;657597
ASUS41 KCLE 060012
RWRCLE
OHIO REGIONAL WEATHER ROUNDUP
NATIONAL WEATHER SERVICE WILMINGTON, OH
800 PM EDT WED MAY 05 2021

NOTE: "FAIR" INDICATES FEW OR NO CLOUDS BELOW 12,000 FEET WITH NO
SIGNIFICANT WEATHER AND/OR OBSTRUCTIONS TO VISIBILITY.


OHZ009>014-019>023-028>033-038-089-060100-
   NORTHEAST OHIO
  
CITY           SKY/WX    TMP DP  RH WIND       PRES   REMARKS
CLE-HOPKINS    CLOUDY    48  39  71 W5        30.06R                  
CLE-LAKEFRONT  CLOUDY    50  40  68 W8        30.07R                  
CUY CO. ARPT   MOCLDY    46  41  81 NW7       30.08R                  
LORAIN-ELYRIA  CLOUDY    49  39  68 NW5       30.09R                  
ASHTABULA      CLOUDY    46  39  76 W8        30.06R                  
AKRON-CANTON   MOCLDY    47  39  74 NW7       30.07R                  
WOOSTER        CLOUDY    47  39  74 NW7       30.09R                  
MANSFIELD      MOCLDY    49  38  65 NW5       30.09R                  
YOUNGSTOWN     LGT RAIN  45  40  82 NW9       30.06R                  
$$
 

SKY/WX - Weather  TMP - Temperature  DP - Dew Point  RH - Relative Humidity
WIND - Wind Direction/Speed PRES - Barometric Pressure VSB - Visibility
WCI - Wind Chill Index E13G22 Wind - East Wind 13 mph/Gusts of 22 mph